When you browse on this site, cookies collect data to enhance your experience and personalize the content and advertising you see.
Visit our Privacy Policy to learn more. By continuing to use the site, you agree to this use of cookies and data.
  • In Latvia
  • List of Countries
  • For 7 days
  • Water Temperature
  • Satellite Maps
  • Weather Map
  • Weather Widgets
  • user-avatar
    Login

    Hourly Weather Staryy Tukshum

    Today, 16 June, Sunday

    Time Temperature Precipitation Wind Pressure Humidity
    00:00 +11°C° 0 mm 1 mps 750 mmHg 84%
    01:00 +11°C° 0 mm 1 mps 749 mmHg 84%
    02:00 +11°C° 0 mm 1 mps 749 mmHg 85%
    03:00 +11°C° 0 mm 1 mps 749 mmHg 86%
    04:00 +12°C° 0 mm 1 mps 749 mmHg 84%
    05:00 +13°C° 0 mm 1 mps 749 mmHg 81%
    06:00 +14°C° 0 mm 1 mps 749 mmHg 78%
    07:00 +15°C° 0 mm 1 mps 749 mmHg 73%
    08:00 +17°C° 0 mm 2 mps 749 mmHg 68%
    09:00 +18°C° 0 mm 2 mps 749 mmHg 63%
    10:00 +19°C° 0.1 mm 2 mps 749 mmHg 61%
    11:00 +19°C° 0.1 mm 2 mps 748 mmHg 58%
    12:00 +20°C° 0.1 mm 3 mps 748 mmHg 55%
    13:00 +20°C° 0 mm 3 mps 748 mmHg 55%
    14:00 +20°C° 0 mm 3 mps 748 mmHg 56%
    15:00 +20°C° 0 mm 3 mps 748 mmHg 56%
    16:00 +20°C° 0 mm 2 mps 748 mmHg 61%
    17:00 +20°C° 0 mm 2 mps 748 mmHg 65%
    18:00 +19°C° 0 mm 2 mps 748 mmHg 70%
    19:00 +17°C° 0 mm 2 mps 748 mmHg 76%
    20:00 +16°C° 0 mm 2 mps 748 mmHg 81%
    21:00 +14°C° 0 mm 2 mps 749 mmHg 87%
    22:00 +14°C° 0 mm 2 mps 749 mmHg 87%
    23:00 +13°C° 0 mm 2 mps 749 mmHg 88%

    Tomorrow, 17 June, Monday

    Time Temperature Precipitation Wind Pressure Humidity
    00:00 +13°C° 0 mm 1 mps 749 mmHg 89%
    01:00 +13°C° 0 mm 2 mps 749 mmHg 90%
    02:00 +12°C° 0 mm 2 mps 749 mmHg 91%
    03:00 +12°C° 0 mm 2 mps 749 mmHg 92%
    04:00 +13°C° 0 mm 2 mps 749 mmHg 89%
    05:00 +14°C° 0 mm 2 mps 749 mmHg 87%
    06:00 +15°C° 0 mm 2 mps 750 mmHg 84%
    07:00 +17°C° 0 mm 3 mps 750 mmHg 78%
    08:00 +19°C° 0 mm 3 mps 750 mmHg 71%
    09:00 +20°C° 0 mm 3 mps 750 mmHg 65%
    10:00 +21°C° 0 mm 3 mps 750 mmHg 61%
    11:00 +22°C° 0 mm 3 mps 750 mmHg 57%
    12:00 +24°C° 0 mm 3 mps 750 mmHg 52%
    13:00 +23°C° 0 mm 4 mps 749 mmHg 53%
    14:00 +23°C° 0 mm 4 mps 749 mmHg 54%
    15:00 +23°C° 0 mm 5 mps 749 mmHg 55%
    16:00 +23°C° 0 mm 4 mps 749 mmHg 61%
    17:00 +22°C° 0 mm 4 mps 749 mmHg 66%
    18:00 +22°C° 0 mm 3 mps 749 mmHg 72%
    19:00 +20°C° 0 mm 3 mps 749 mmHg 76%
    20:00 +18°C° 0 mm 3 mps 749 mmHg 81%
    21:00 +17°C° 0 mm 2 mps 749 mmHg 85%
    22:00 +16°C° 0 mm 2 mps 749 mmHg 86%
    23:00 +16°C° 0 mm 2 mps 749 mmHg 87%

    Day after tomorrow, 18 June, Tuesday

    Time Temperature Precipitation Wind Pressure Humidity
    00:00 +16°C° 0 mm 2 mps 749 mmHg 88%
    01:00 +15°C° 0 mm 2 mps 749 mmHg 89%
    02:00 +14°C° 0 mm 3 mps 749 mmHg 90%
    03:00 +14°C° 0 mm 3 mps 749 mmHg 91%
    04:00 +16°C° 0 mm 3 mps 749 mmHg 88%
    05:00 +17°C° 0 mm 3 mps 749 mmHg 86%
    06:00 +18°C° 0 mm 4 mps 749 mmHg 83%
    07:00 +19°C° 0.2 mm 4 mps 749 mmHg 79%
    08:00 +20°C° 0.2 mm 3 mps 749 mmHg 76%
    09:00 +22°C° 0.2 mm 3 mps 749 mmHg 72%
    10:00 +22°C° 0.2 mm 3 mps 749 mmHg 68%
    11:00 +24°C° 0.2 mm 3 mps 749 mmHg 64%
    12:00 +25°C° 0.2 mm 3 mps 749 mmHg 59%
    13:00 +25°C° 0 mm 3 mps 749 mmHg 58%
    14:00 +25°C° 0 mm 2 mps 749 mmHg 58%
    15:00 +25°C° 0 mm 2 mps 749 mmHg 57%
    16:00 +25°C° 0.2 mm 2 mps 749 mmHg 64%
    17:00 +24°C° 0.2 mm 1 mps 748 mmHg 71%
    18:00 +23°C° 0.2 mm 1 mps 748 mmHg 78%
    19:00 +22°C° 0.2 mm 1 mps 749 mmHg 81%
    20:00 +21°C° 0.2 mm 1 mps 749 mmHg 83%
    21:00 +20°C° 0.2 mm 1 mps 749 mmHg 86%
    22:00 +19°C° 0.3 mm 1 mps 749 mmHg 88%
    23:00 +18°C° 0.3 mm 1 mps 749 mmHg 89%

    19 June, Wednesday

    Time Temperature Precipitation Wind Pressure Humidity
    00:00 +18°C° 0.3 mm 1 mps 749 mmHg 91%
    01:00 +16°C° 0 mm 2 mps 749 mmHg 92%
    02:00 +16°C° 0 mm 2 mps 749 mmHg 93%
    03:00 +16°C° 0 mm 2 mps 748 mmHg 93%
    04:00 +16°C° 0.1 mm 2 mps 749 mmHg 92%
    05:00 +17°C° 0.1 mm 2 mps 749 mmHg 91%
    06:00 +18°C° 0.1 mm 2 mps 749 mmHg 89%
    07:00 +19°C° 0 mm 2 mps 749 mmHg 82%
    08:00 +21°C° 0 mm 2 mps 749 mmHg 75%
    09:00 +23°C° 0 mm 2 mps 749 mmHg 68%
    10:00 +24°C° 0.3 mm 2 mps 749 mmHg 65%
    11:00 +25°C° 0.3 mm 2 mps 749 mmHg 63%
    12:00 +25°C° 0.3 mm 2 mps 749 mmHg 60%
    13:00 +25°C° 1.1 mm 2 mps 749 mmHg 62%
    14:00 +25°C° 1.1 mm 2 mps 749 mmHg 63%
    15:00 +25°C° 1.1 mm 3 mps 749 mmHg 65%
    16:00 +25°C° 0.4 mm 3 mps 749 mmHg 69%
    17:00 +24°C° 0.4 mm 3 mps 749 mmHg 74%
    18:00 +24°C° 0.4 mm 3 mps 749 mmHg 78%
    19:00 +21°C° 0 mm 3 mps 749 mmHg 83%
    20:00 +19°C° 0 mm 3 mps 749 mmHg 88%
    21:00 +18°C° 0 mm 3 mps 750 mmHg 93%
    22:00 +17°C° 0 mm 2 mps 750 mmHg 94%
    23:00 +17°C° 0 mm 2 mps 750 mmHg 95%

    20 June, Thursday

    Time Temperature Precipitation Wind Pressure Humidity
    00:00 +16°C° 0 mm 2 mps 751 mmHg 96%
    01:00 +16°C° 0 mm 2 mps 751 mmHg 96%
    02:00 +16°C° 0 mm 2 mps 751 mmHg 96%
    03:00 +15°C° 0 mm 2 mps 751 mmHg 96%
    04:00 +16°C° 0 mm 2 mps 751 mmHg 93%
    05:00 +17°C° 0 mm 2 mps 751 mmHg 91%
    06:00 +18°C° 0 mm 2 mps 752 mmHg 89%
    07:00 +20°C° 0 mm 2 mps 752 mmHg 81%
    08:00 +21°C° 0 mm 2 mps 752 mmHg 74%
    09:00 +24°C° 0 mm 2 mps 752 mmHg 66%
    10:00 +25°C° 0 mm 2 mps 752 mmHg 63%
    11:00 +26°C° 0 mm 2 mps 753 mmHg 59%
    12:00 +27°C° 0 mm 2 mps 753 mmHg 56%
    13:00 +27°C° 0 mm 2 mps 753 mmHg 55%
    14:00 +27°C° 0 mm 2 mps 753 mmHg 54%
    15:00 +28°C° 0 mm 2 mps 752 mmHg 53%
    16:00 +27°C° 0 mm 2 mps 753 mmHg 58%
    17:00 +27°C° 0 mm 2 mps 753 mmHg 63%
    18:00 +26°C° 0 mm 1 mps 753 mmHg 68%
    19:00 +24°C° 0 mm 1 mps 753 mmHg 72%
    20:00 +22°C° 0 mm 1 mps 753 mmHg 76%
    21:00 +21°C° 0 mm 1 mps 754 mmHg 79%
    22:00 +20°C° 0 mm 1 mps 754 mmHg 80%
    23:00 +20°C° 0 mm 1 mps 754 mmHg 81%

    21 June, Friday

    Time Temperature Precipitation Wind Pressure Humidity
    00:00 +19°C° 0 mm 1 mps 754 mmHg 82%
    01:00 +19°C° 0 mm 1 mps 754 mmHg 83%
    02:00 +19°C° 0 mm 1 mps 754 mmHg 83%
    03:00 +19°C° 0 mm 1 mps 754 mmHg 83%
    04:00 +20°C° 0 mm 1 mps 755 mmHg 81%
    05:00 +21°C° 0 mm 1 mps 755 mmHg 80%
    06:00 +21°C° 0 mm 1 mps 755 mmHg 79%
    07:00 +23°C° 0 mm 1 mps 755 mmHg 74%
    08:00 +24°C° 0 mm 2 mps 755 mmHg 69%
    09:00 +25°C° 0 mm 2 mps 755 mmHg 64%
    10:00 +26°C° 0 mm 2 mps 755 mmHg 61%
    11:00 +27°C° 0 mm 1 mps 755 mmHg 57%
    12:00 +28°C° 0 mm 1 mps 755 mmHg 53%
    13:00 +28°C° 0 mm 1 mps 755 mmHg 52%
    14:00 +28°C° 0 mm 1 mps 755 mmHg 51%
    15:00 +28°C° 0 mm 1 mps 755 mmHg 50%
    16:00 +28°C° 0 mm 1 mps 755 mmHg 56%
    17:00 +27°C° 0 mm 1 mps 755 mmHg 62%
    18:00 +26°C° 0 mm 1 mps 754 mmHg 68%
    19:00 +25°C° 0 mm 1 mps 755 mmHg 72%
    20:00 +23°C° 0 mm 1 mps 755 mmHg 75%
    21:00 +19°C° 0 mm 0 mps 755 mmHg 78%
    22:00 +19°C° 0 mm 0 mps 755 mmHg 78%
    23:00 +19°C° 0 mm 0 mps 755 mmHg 78%
    Show more